Current weather by "City, St" or "zip code"  
 

Current Conditions: Oakdale, Allen Parish Airport, LA

Partly Cloudy


84.0 F

Last Updated on Oct 21 2021, 12:35 pm CDT
Humidity: 62%
Wind Speed: N 0.0 mph
Barometer 30.13 in
Dewpoint: 69.8 F
Visibility: 10.00 mi
Precip: --
Heat Index: 88 F
Wind Chill: NA
Current conditions at:

Oakdale, Allen Parish Airport, LA (KACP)

Lat: 30.75056 Lon: 92.68861

Local Radar Image active severe weather and emergency alerts image image weather storm and storm spotter reports image weather observation monitoring service image
Local
Radar
Active
Alerts
Storm Reports Obs
Monitoring

Sign-up For Email & Text Message Weather Alert Notification Services



Advertise Here

Observation History for Oakdale, Allen Parish Airport, LA


Time Wind
(mph)
Vis
(mi)
Weather Precip (in) Temperature (F) Relative
Humidity
Wind
Chill
(F)
Heat
Index
(F)
Pressure
Air Dwpt altimeter
(in)
sea level
(mb)
Rmks
12:35 pm CDT N 0.0 10.00 Partly Cloudy -- 84.0 69.8 62% NA 88 30.13 M
11:55 am CDT N 3.5 10.00 Partly Cloudy -- 81.0 71.6 74% NA 85 30.14 M
10:55 am CDT N 0.0 10.00 Overcast -- 75.0 71.6 89% NA NA 30.16 M
9:55 am CDT N 0.0 1.25 Fog/Mist -- 73.0 69.8 89% NA NA 30.16 M
9:35 am CDT N 0.0 3.00 Fog/Mist -- 72.0 69.8 94% NA NA 30.16 M
8:55 am CDT N 0.0 2.50 Fog/Mist -- 72.0 69.8 94% NA NA 30.15 M
7:55 am CDT N 0.0 0.75 Fog/Mist -- 68.0 66.2 94% NA NA 30.14 M
6:55 am CDT N 0.0 0.50 Fog -- 68.0 66.2 94% NA NA 30.12 M
5:55 am CDT N 0.0 0.25 Fog -- 66.0 64.4 94% NA NA 30.10 M
4:55 am CDT N 0.0 0.25 Fog -- 66.0 64.4 94% NA NA 30.08 M
3:55 am CDT N 0.0 0.15 Fog -- 68.0 64.4 88% NA NA 30.08 M
2:55 am CDT N 0.0 0.25 Fog -- 66.0 64.4 94% NA NA 30.08 M
2:35 am CDT N 0.0 0.25 Fog -- 64.0 62.6 94% NA NA 30.08 M
1:55 am CDT N 0.0 0.25 Fog -- 64.0 60.8 88% NA NA 30.08 M
12:55 am CDT N 0.0 3.00 Fog/Mist -- 64.0 60.8 88% NA NA 30.09 M
11:55 pm CDT N 0.0 4.00 Fog/Mist -- 64.0 62.6 94% NA NA 30.10 M
10:55 pm CDT N 0.0 3.00 Fog/Mist -- 66.0 64.4 94% NA NA 30.11 M
9:55 pm CDT N 0.0 3.00 Fog/Mist -- 66.0 64.4 94% NA NA 30.10 M
8:55 pm CDT N 0.0 5.00 Fog/Mist -- 68.0 64.4 88% NA NA 30.08 M
8:35 pm CDT N 0.0 0.50 Fog -- 68.0 66.2 94% NA NA 30.08 M
7:55 pm CDT N 0.0 4.00 Fog/Mist -- 70.0 68.0 94% NA NA 30.08 M
6:55 pm CDT N 0.0 7.00 Fair -- 73.0 69.8 89% NA NA 30.07 M
5:55 pm CDT N 0.0 10.00 Fair -- 79.0 71.6 79% NA NA 30.06 M
4:55 pm CDT E 3.5 10.00 Partly Cloudy -- 82.0 69.8 66% NA 86 30.06 M

Regional Weather Observation


Oakdale, Allen Parish Airport, LA (KACP)

Partly Cloudy
84.0 F

Fort Polk, Polk AAF Ft Polk, LA (KPOE)

A Few Clouds
82.0 F

De Ridder, Beauregard Parish Airport, LA (KDRI)

Partly Cloudy
83.0 F

Alexandria, Alexandria International Airport, LA (KAEX)

Fair
84.0 F

Ft. Polk - Peason Ridge, LA (KAQV)

A Few Clouds
82.0 F

Jennings Airport, LA (K3R7)

Partly Cloudy
81.0 F

Advertise Here


Advertise Here